{"data":{"norad_id":52473,"epoch":"2026-05-25T02:06:12.534048Z","epoch_age_seconds":74651,"freshness":"FRESH","line1":"1 52473U 22049Y   26145.08764507 -.00001512  00000+0 -76876-4 0  9991","line2":"2 52473  53.2132  76.1553 0001814  86.1071 274.0128 15.08847229223785","mean_motion":15.08847229,"eccentricity":0.0001814,"inclination_deg":53.2132,"raan_deg":76.1553,"arg_perigee_deg":86.1071,"mean_anomaly_deg":274.0128,"bstar":-7.6876e-5,"rev_number":22378,"period_min":95.437097429298,"perigee_km":538.466393397,"apogee_km":540.97619238566,"semimajor_km":6917.8582928913,"source":"CELESTRAK","updated_at":"2026-05-25T13:38:17.154022Z"}}